Bridgeport, CT

8:52 PM EDT on March 27, 2017 (GMT -0400)
Sikorsky Memorial

Weather History for KBDR - March, 2013

Change the Weather History Date:

Thursday, March 28, 2013

  Actual Average Record
Temperature  
Mean Temperature 43 °F 43 °F  
Max Temperature 51 °F 51 °F 76 °F (1991)
Min Temperature 35 °F 35 °F 17 °F (1966)
Degree Days  
Heating Degree Days 22 22  
Month to date heating degree days 736 733  
Since 1 July heating degree days 4359 4620  
Cooling Degree Days 0 0  
Month to date cooling degree days 0 0  
Year to date cooling degree days 0 0  
Moisture  
Dew Point 29 °F    
Average Humidity 56    
Maximum Humidity 70    
Minimum Humidity 42    
Precipitation  
Precipitation T in 0.13 in 2.12 in (2005)
Month to date precipitation 2.39 3.64  
Year to date precipitation 9.41 9.53  
Snow  
Snow 0.00 in 0.10 in 1.20 in (1984)
Month to date snowfall 13.0 4.9  
Since 1 July snowfall 64.3 26.5  
Snow Depth 0.00 in    
Sea Level Pressure  
Sea Level Pressure 29.98 in    
Wind  
Wind Speed 9 mph (NW)    
Max Wind Speed 18 mph    
Max Gust Speed 24 mph    
Visibility 10 miles    
Events Rain    
T = Trace of Precipitation, MM = Missing Value Source: NWS Daily Summary

Daily Weather History Graph

Daily Weather History Graph

Search for Another Location

Airport or City:

Trip Planner

Search our weather history database for the weather conditions in past years. The results will help you decide how hot, cold, wet, or windy it might be!

Date:

Astronomy

Mar. 28, 2013 Rise Set
Actual Time 6:42 AM EDT 7:13 PM EDT
Civil Twilight 6:14 AM EDT 7:41 PM EDT
Nautical Twilight 5:41 AM EDT 8:13 PM EDT
Astronomical Twilight 5:08 AM EDT 8:47 PM EDT
Moon 9:03 PM EDT 7:07 AM EDT
Length of Visible Light 13h 26m
Length of Day
12h 31m
Full, 98% of the Moon is Illuminated
Mar 28
Full
Apr 3
Last Quarter
Apr 10
New
Apr 18
First Quarter
Apr 25
Full

Hourly Weather History & Observations

Time (EDT) Temp. Windchill Dew Point Humidity Pressure Visibility Wind Dir Wind Speed Gust Speed Precip Events Conditions
12:52 AM 39.0 °F 34.8 °F 24.1 °F 55% 29.94 in 10.0 mi WNW 5.8 mph - N/A   Clear
1:52 AM 39.0 °F 34.8 °F 25.0 °F 57% 29.93 in 10.0 mi West 5.8 mph - N/A   Clear
2:52 AM 37.9 °F 33.5 °F 26.1 °F 62% 29.93 in 10.0 mi West 5.8 mph - N/A   Clear
3:52 AM 37.0 °F 30.4 °F 26.1 °F 65% 29.93 in 10.0 mi WNW 9.2 mph - N/A   Clear
4:52 AM 37.0 °F 32.4 °F 26.1 °F 65% 29.93 in 10.0 mi WNW 5.8 mph - N/A   Clear
5:52 AM 35.1 °F 31.0 °F 25.0 °F 67% 29.94 in 10.0 mi WNW 4.6 mph - N/A   Clear
6:52 AM 35.1 °F - 26.1 °F 70% 29.95 in 10.0 mi Calm Calm - N/A   Mostly Cloudy
7:52 AM 39.0 °F 35.7 °F 28.0 °F 65% 29.96 in 10.0 mi NNW 4.6 mph - N/A   Clear
8:52 AM 44.1 °F 37.1 °F 28.9 °F 55% 29.97 in 10.0 mi North 15.0 mph 24.2 mph N/A   Partly Cloudy
9:52 AM 44.1 °F 37.4 °F 30.0 °F 58% 29.98 in 10.0 mi North 13.8 mph - N/A   Overcast
10:52 AM 46.0 °F 40.2 °F 30.9 °F 56% 29.99 in 10.0 mi North 12.7 mph - N/A   Overcast
11:52 AM 46.9 °F - 33.1 °F 59% 29.99 in 10.0 mi North 9.2 mph - 0.00 in Rain Light Rain
12:52 PM 48.9 °F - 32.0 °F 52% 29.99 in 10.0 mi North 9.2 mph 16.1 mph N/A   Overcast
1:52 PM 48.9 °F - 30.9 °F 50% 29.98 in 10.0 mi North 8.1 mph - N/A   Overcast
2:52 PM 50.0 °F - 28.9 °F 44% 29.97 in 10.0 mi NNW 10.4 mph - N/A   Overcast
3:52 PM 50.0 °F - 28.9 °F 44% 29.97 in 10.0 mi NNW 6.9 mph - N/A   Overcast
4:52 PM 50.0 °F - 28.9 °F 44% 29.98 in 10.0 mi NNW 15.0 mph - N/A   Overcast
5:52 PM 50.0 °F - 28.0 °F 43% 29.98 in 10.0 mi NW 12.7 mph 19.6 mph N/A   Overcast
6:52 PM 48.0 °F - 28.9 °F 48% 30.01 in 10.0 mi NNW 11.5 mph 21.9 mph N/A   Overcast
7:52 PM 46.9 °F - 30.0 °F 52% 30.04 in 10.0 mi NW 9.2 mph - N/A   Clear
8:52 PM 46.0 °F 41.9 °F 30.9 °F 56% 30.05 in 10.0 mi NW 8.1 mph - N/A   Overcast
9:52 PM 46.0 °F 42.5 °F 32.0 °F 58% 30.07 in 10.0 mi NNW 6.9 mph - N/A   Overcast
10:52 PM 46.0 °F 41.9 °F 32.0 °F 58% 30.08 in 10.0 mi NNW 8.1 mph - N/A   Overcast
11:52 PM 45.0 °F 41.8 °F 30.9 °F 58% 30.08 in 10.0 mi NW 5.8 mph - N/A   Overcast